Other Surface Observations
Issued by NWS Charleston, SC

Home | Current Version | Previous Version | Text Only | Print | Product List | Glossary On
Versions: 1 2 3 4 5 6 7 8 9 10 11 12 13 14 15 16 17 18 19 20 21 22 23 24 25 26 27 28 29 30 31 32 33 34 35 36 37 38 39 40 41 42 43 44 45 46 47 48 49 50
478
SXUS52 KCHS 261128
OSOCHS

MARINE OBSERVATIONS
NATIONAL WEATHER SERVICE CHARLESTON SC
700 AM EDT FRI AUG 26 2016

...DOWNTOWN CHARLESTON AND HARBOR...

CITY           SKY/WX    TMP DP  RH WIND       PRES   REMARKS
WATERFRONT PRK   N/A     78  76  94 N5        30.06S

...LAKE MOULTRIE...

CITY           SKY/WX    TMP DP  RH WIND       PRES   REMARKS
PINOPOLIS        N/A     75  73  94 CALM      30.02S

...LAKE AND SUPPLEMENTAL COASTAL OBSERVATIONS...

STATION/POSITION TIME  TEMP    WIND        PRES    WAVE   SWELL
                       AIR SEA DIR/SP/G            HT/PER HT/PER/DIR
                 (UTC) (F)     (DEG/KT/KT) (MB)    (FT/S) (FT/S/D)
FORT PULASKI     1100   76 85  330/  6/  7 1019.1R
SAPELO ISLAND    1100   73        CALM     1018.0S
WINYAH BAY       1000   73     320/  3     1018.0
LAKE MURRAY      1100   78     270/  3/  7 1019.0R
ACE BASIN NERRS  1000   74        CALM     1019.0S


...C-MAN AND BUOY OBSERVATIONS...

STATION/POSITION TIME  TEMP    WIND        PRES    WAVE   SWELL
                       AIR SEA DIR/SP/G            HT/PER HT/PER/DIR
                 (UTC) (F)     (DEG/KT/KT) (MB)    (FT/S) (FT/S/D)
BUOY 41004       1050   82 84   40/ 10/ 12 1018.0R   3/ 7   2/ 90/ 7
BUOY 41008       1050   82 85   50/ 10/ 12 1017.7R   3/ 9   3/100/ 9
FOLLY BEACH CMAN 1100   78     350/  5/  5 1019.1R
CAPERS NS BUOY   1008   81 84   40/  4/  6 1018.4R
FRIPP NS BUOY    1108   83 86   40/  8/ 10 1018.4R
5E ST. MARYS GA  1101      85                N/A     4/ 9


STATION/POSITION TIME  TEMP    WIND        PRES    WAVE   SWELL
                       AIR SEA DIR/SP/G            HT/PER HT/PER/DIR
                 (UTC) (F)     (DEG/KT/KT) (MB)    (FT/S) (FT/S/D)
FRYING PAN BUOY  1100   81 84   30/  4/  8 1019.0R
BUOY 41025       1050   81 84  250/  4/  6 1019.4R   3/ 8   3/ 70/ 8
CAPE LOOKOUT NC  1100   79        CALM     1019.3R
BUOY 41002       1050   80 84   20/ 14/ 17 1016.8R   4/ 7   2/ 90/ 7
BUOY 41010       NOT AVBL
ST AUGUSTINE FL  1100   82 83   30/ 14/ 15 1017.6R

$$




USA.gov is the U.S. government's official web portal to all federal, state and local government web resources and services.